Valentine, NE

3:40 PM CST on December 09, 2019 (GMT -0600)
Miller Field

Weather History for KVTN - November, 2019

Change the Weather History Date:

Sunday, November 17, 2019

  Actual Average Record
Temperature  
Mean Temperature 40 °F 34 °F  
Max Temperature 57 °F 47 °F 74 °F (1999)
Min Temperature 23 °F 21 °F -18 °F (1891)
Degree Days  
Heating Degree Days 25 31  
Month to date heating degree days 499 463  
Since 1 July heating degree days 1256 1165  
Cooling Degree Days 0 0  
Month to date cooling degree days 0 0  
Year to date cooling degree days 930 821  
Moisture  
Dew Point 27 °F    
Average Humidity 62    
Maximum Humidity 85    
Minimum Humidity 32    
Precipitation  
Precipitation 0.00 in 0.03 in 0.43 in (1952)
Month to date precipitation 0.20 0.43  
Year to date precipitation 28.27 19.43  
Snow  
Snow 0.00 in 0.20 in 3.50 in (1927)
Month to date snowfall 2.2 3.0  
Since 1 July snowfall 4.1 5.2  
Since 1 September snowfall 4.1 5.2  
Snow Depth 0.00 in    
Sea Level Pressure  
Sea Level Pressure 30.01 in    
Wind  
Wind Speed 7 mph ()    
Max Wind Speed 15 mph    
Max Gust Speed 21 mph    
Visibility 10.0 miles    
Events      
T = Trace of Precipitation, MM = Missing Value Source: Averaged Metar Reports

Daily Weather History Graph

Daily Weather History Graph

Search for Another Location

Airport or City:

Astronomy

Nov. 17, 2019 Rise Set
Actual Time 7:36 AM CST 5:17 PM CST
Civil Twilight 7:05 AM CST 5:47 PM CST
Nautical Twilight 6:31 AM CST 6:22 PM CST
Astronomical Twilight 5:57 AM CST 6:55 PM CST
Moon 9:54 PM CST (11/17) 12:25 PM CST (11/17)
Length of Visible Light 10h 42m
Length of Day
9h 40m
Waning Gibbous, 73% of the Moon is Illuminated
Nov 17
Waning Gibbous
Nov 19
Last Quarter
Nov 26
New
Dec 4
First Quarter
Dec 11
Full

Hourly Weather History & Observations

Time (CST) Temp. Windchill Dew Point Humidity Pressure Visibility Wind Dir Wind Speed Gust Speed Precip Events Conditions
12:52 AM 37.0 °F 29.3 °F 30.0 °F 76% 30.13 in 10.0 mi WNW 11.5 mph - N/A   Clear
1:52 AM 35.1 °F 27.9 °F 28.0 °F 76% 30.15 in 10.0 mi WNW 9.2 mph - N/A   Clear
2:52 AM 33.1 °F 26.1 °F 27.0 °F 78% 30.15 in 10.0 mi WNW 8.1 mph - N/A   Clear
4:52 AM 26.1 °F 18.4 °F 21.0 °F 81% 30.13 in 10.0 mi WSW 6.9 mph - N/A   Clear
5:52 AM 26.1 °F 18.4 °F 21.9 °F 84% 30.13 in 10.0 mi WSW 6.9 mph - N/A   Clear
6:52 AM 24.1 °F 17.0 °F 19.9 °F 84% 30.14 in 10.0 mi WSW 5.8 mph - N/A   Clear
7:52 AM 24.1 °F 16.0 °F 19.9 °F 84% 30.13 in 10.0 mi WSW 6.9 mph - N/A   Clear
8:52 AM 30.9 °F 26.2 °F 26.1 °F 82% 30.12 in 10.0 mi WSW 4.6 mph - N/A   Clear
9:52 AM 37.9 °F 34.4 °F 32.0 °F 79% 30.09 in 10.0 mi WSW 4.6 mph - N/A   Clear
10:52 AM 48.0 °F - 32.0 °F 54% 30.09 in 10.0 mi WNW 4.6 mph - N/A   Clear
11:52 AM 54.0 °F - 26.1 °F 34% 30.04 in 10.0 mi WNW 8.1 mph - N/A   Clear
12:52 PM 55.9 °F - 28.9 °F 36% 30.01 in 10.0 mi West 11.5 mph 17.3 mph N/A   Clear
1:52 PM 55.9 °F - 27.0 °F 33% 29.97 in 10.0 mi WSW 6.9 mph - N/A   Clear
2:52 PM 55.9 °F - 26.1 °F 32% 29.94 in 10.0 mi West 12.7 mph 18.4 mph N/A   Clear
3:52 PM 55.0 °F - 27.0 °F 34% 29.95 in 10.0 mi West 9.2 mph - N/A   Clear
4:52 PM 48.9 °F - 28.0 °F 44% 29.94 in 10.0 mi SW 5.8 mph - N/A   Clear
5:52 PM 43.0 °F 39.5 °F 28.0 °F 56% 29.94 in 10.0 mi SW 5.8 mph - N/A   Clear
7:52 PM 44.1 °F 39.5 °F 30.0 °F 58% 29.88 in 10.0 mi SSW 8.1 mph - N/A   Mostly Cloudy
8:52 PM 43.0 °F 41.3 °F 30.0 °F 60% 29.85 in 10.0 mi SSW 3.5 mph - N/A   Partly Cloudy
9:52 PM 42.1 °F 38.4 °F 30.0 °F 62% 29.83 in 10.0 mi WSW 5.8 mph - N/A   Scattered Clouds
10:52 PM 44.1 °F 40.1 °F 30.9 °F 60% 29.80 in 10.0 mi WSW 6.9 mph - N/A   Overcast
11:52 PM 44.1 °F 39.5 °F 34.0 °F 68% 29.76 in 10.0 mi WSW 8.1 mph - N/A   Overcast